[[{"header":{"parameterUnit":"m.s-1","parameterCategory":1,"la1":30.2991,"la2":30.254,"lo1":-89.0895,"lo2":-89.0444,"dy":0.0017,"dx":0.0017,"nx":28,"ny":28,"refTime":"2025-09-11T09:00:00:Z","depth":0,"parameterNumber":2,"parameterNumberName":"U-component_of_WINDS"},"data":[0,0,0,0,0,0,0,0,0,0,0,0,0,0,0,0,0,0,0,0,0,0,0,0,0,0,0,0,0,0,0,0,0,0,0,0,0,0,0,0,0,0,0,0,0,0,0,0,0,0,0,0,0,0,0,0,0,0,-1.3712,-1.3713,0,-1.3763,-1.3764,-1.3764,-1.3729,-1.3728,-1.3726,-1.3725,-1.3777,-1.378,-1.3783,0,0,0,0,0,0,0,0,0,0,0,0,0,-1.3584,-1.3586,-1.3712,-1.3713,-1.3713,-1.3763,-1.3764,-1.3765,-1.373,-1.3728,-1.3726,-1.3724,-1.3776,-1.378,-1.3783,0,0,0,0,0,0,0,0,0,0,0,0,0,-1.3638,-1.3587,-1.3712,-1.3702,-1.3701,-1.3763,-1.3764,-1.3765,-1.373,-1.3728,-1.3725,-1.3723,-1.3775,-1.378,-1.3784,-1.3858,0,0,-1.3797,-1.3799,0,0,0,0,0,0,0,0,-1.3635,-1.3642,-1.3703,-1.3703,-1.3702,-1.3737,-1.3738,-1.3796,-1.3731,-1.3719,-1.3725,-1.3722,-1.3766,-1.3771,-1.3786,-1.3861,-1.3863,-1.3797,-1.38,-1.3802,-1.3803,0,0,0,0,0,0,0,-1.3631,-1.364,-1.3732,-1.3704,-1.3703,-1.3695,-1.37,-1.3749,-1.3755,-1.372,-1.3718,-1.3724,-1.3765,-1.3782,-1.3787,-1.3864,-1.3797,-1.3801,-1.3804,-1.3805,-1.4002,-1.4004,0,0,0,0,0,0,-1.3628,-1.3637,-1.3731,-1.3734,-1.3662,-1.3699,-1.3705,-1.3729,-1.3755,-1.3756,-1.3726,-1.3722,-1.3776,-1.3782,-1.3789,-1.3877,-1.3802,-1.3806,-1.3808,-1.3999,-1.4002,-1.4005,0,0,0,0,0,0,-1.3625,-1.3637,-1.3729,-1.3685,-1.3696,-1.3704,-1.3731,-1.3731,-1.3747,-1.3759,-1.376,-1.3742,-1.3774,-1.3782,-1.3841,-1.3879,-1.3808,-1.3812,-1.3996,-1.4,-1.4004,-1.4055,0,0,0,0,0,0,-1.3622,-1.3636,-1.3664,-1.3686,-1.3698,-1.378,-1.3733,-1.3734,-1.3755,-1.375,-1.3774,-1.3776,-1.3773,-1.3835,-1.3845,-1.3883,-1.3815,-1.3993,-1.3998,-1.4002,-1.405,-1.406,-1.4069,0,0,0,0,0,-1.3617,-1.3677,-1.3666,-1.3678,-1.3734,-1.3783,-1.379,-1.3785,-1.3758,-1.3786,-1.3794,-1.3775,-1.3873,-1.3841,-1.3853,-1.3892,-1.399,-1.3996,-1.4002,-1.4046,-1.4058,-1.4069,0,0,0,0,0,0,-1.366,-1.368,-1.3668,-1.3736,-1.3758,-1.3777,-1.3813,-1.3798,-1.3829,-1.3823,-1.3816,-1.3822,-1.3883,-1.3893,-1.3858,-1.3966,-1.3927,-1.3936,-1.3957,-1.3969,-1.3978,-1.3974,-1.3819,0,0,0,0,0,-1.3677,-1.3715,-1.373,-1.3789,-1.3801,-1.3805,-1.3826,-1.382,-1.3843,-1.3852,-1.3864,-1.3886,-1.3922,-1.3946,-1.3979,-1.4051,-1.4056,-1.4084,-1.4094,-1.4102,-1.4109,-1.4148,-1.4161,-1.4024,-1.4024,-1.4024,0,0,-1.3713,-1.3729,-1.3753,-1.3798,-1.3814,-1.3854,-1.3813,-1.3856,-1.3885,-1.3858,-1.3914,-1.3924,-1.3949,-1.4014,-1.4044,-1.4025,-1.4148,-1.4109,-1.4115,-1.4119,-1.4155,-1.4168,-1.418,-1.4028,-1.4028,-1.4027,0,0,-1.3799,-1.3815,-1.3865,-1.3883,-1.3908,-1.391,-1.3922,-1.3943,-1.3949,-1.4005,-1.3985,-1.402,-1.4082,-1.41,-1.4117,-1.421,-1.4194,-1.4221,-1.4271,-1.4309,-1.4319,-1.4329,-1.4362,-1.4374,-1.4229,-1.4229,-1.4229,0,-1.3841,-1.39,-1.3893,-1.3938,-1.3958,-1.3936,-1.3987,-1.4004,-1.4039,-1.4053,-1.4031,-1.4108,-1.4123,-1.4193,-1.4215,-1.423,-1.4244,-1.4219,-1.4318,-1.4328,-1.4337,-1.4368,-1.4381,-1.4232,-1.4232,-1.4231,-1.4231,0,-1.395,-1.3991,-1.4029,-1.4063,-1.4087,-1.4135,-1.4136,-1.4161,-1.4154,-1.4158,-1.4215,-1.4233,-1.4269,-1.4285,-1.4278,-1.4354,-1.4341,-1.4319,-1.428,-1.4353,-1.4382,-1.4394,-1.4237,-1.4235,-1.4234,-1.4234,0,0,-1.4064,-1.4094,-1.4108,-1.4124,-1.415,-1.4181,-1.4228,-1.4264,-1.4286,-1.431,-1.4349,-1.4402,-1.4382,-1.4401,-1.4396,-1.4429,-1.4502,-1.4403,-1.4403,-1.4421,-1.4586,-1.4603,-1.4617,-1.4491,-1.4493,-1.4495,-1.4584,0,-1.4152,-1.4233,-1.4229,-1.4305,-1.4343,-1.4322,-1.4362,-1.4383,-1.4388,-1.4421,-1.4427,-1.4464,-1.4435,-1.4446,-1.4478,-1.4486,-1.4535,-1.448,-1.4527,-1.4529,-1.4521,-1.4632,-1.465,-1.4733,-1.4595,-1.4597,-1.4599,0,-1.4265,-1.4294,-1.4374,-1.4394,-1.441,-1.4447,-1.4479,-1.451,-1.4533,-1.4534,-1.4557,-1.4546,-1.4593,-1.4553,-1.4617,-1.458,-1.4599,-1.4606,-1.4609,-1.4613,-1.4568,-1.4639,-1.476,-1.4772,-1.4617,-1.4615,-1.4614,0,-1.434,-1.4399,-1.4455,-1.4468,-1.4493,-1.452,-1.4531,-1.4552,-1.4573,-1.4601,-1.4615,-1.4649,-1.4667,-1.4693,-1.4691,-1.4662,-1.4757,-1.4717,-1.476,-1.476,-1.4781,-1.4779,-1.4906,-1.4793,-1.4793,-1.4792,-1.4792,0,-1.4439,-1.4489,-1.4489,-1.4523,-1.4578,-1.4573,-1.4627,-1.4636,-1.4654,-1.469,-1.4673,-1.4707,-1.4703,-1.4737,-1.4735,-1.4789,-1.4797,-1.48,-1.4799,-1.4802,-1.4801,-1.4814,-1.4808,-1.4796,-1.4795,-1.4794,-1.4794,0,-1.4533,-1.4535,-1.4594,-1.4613,-1.4619,-1.4659,-1.4675,-1.4707,-1.4711,-1.4756,-1.4766,-1.4773,-1.4811,-1.4812,-1.4857,-1.4856,-1.4922,-1.4914,-1.4914,-1.4913,-1.4955,-1.4951,-1.5094,-1.5113,-1.4988,-1.4989,-1.499,0,-1.4595,-1.4633,-1.4656,-1.4679,-1.4692,-1.4729,-1.4751,-1.4746,-1.477,-1.4798,-1.4827,-1.4864,-1.4894,-1.4957,-1.4966,-1.4999,-1.4993,-1.504,-1.4998,-1.4999,-1.4993,-1.4991,-1.4995,-1.5049,-1.505,-1.5051,-1.5052,0,-1.4706,-1.4705,-1.4738,-1.4771,-1.4797,-1.4823,-1.4847,-1.4866,-1.4865,-1.4892,-1.4931,-1.4954,-1.5,-1.5037,-1.507,-1.5081,-1.5067,-1.5066,-1.5077,-1.508,-1.5079,-1.508,-1.4937,-1.5062,-1.5061,-1.5061,-1.506,-1.506,-1.4786,-1.4819,-1.484,-1.4877,-1.4894,-1.4917,-1.4948,-1.4956,-1.4989,-1.5025,-1.5021,-1.5065,-1.5086,-1.5129,-1.5143,-1.5177,-1.5161,-1.5178,-1.5182,-1.5186,-1.5191,-1.5073,-1.5183,-1.5183,-1.5183,-1.5182,-1.5182,0,-1.4896,-1.4909,-1.4943,-1.4976,-1.5005,-1.4989,-1.5014,-1.5039,-1.5078,-1.5099,-1.5129,-1.5174,-1.521,-1.5221,-1.5256,-1.5281,-1.5275,-1.529,-1.5289,-1.5292,-1.5204,-1.519,-1.5295,-1.5295,-1.5295,-1.5295,-1.5295,-1.5295,-1.4957,-1.5011,-1.5013,-1.5076,-1.5088,-1.5131,-1.5147,-1.5168,-1.5184,-1.5236,-1.5266,-1.5273,-1.529,-1.5325,-1.5358,-1.536,-1.5373,-1.5391,-1.5391,-1.5309,-1.5298,-1.5287,-1.5274,-1.5394,-1.5395,-1.5476,-1.5477,-1.5477]},{"header":{"parameterUnit":"m.s-1","parameterCategory":1,"la1":30.2991,"la2":30.254,"lo1":-89.0895,"lo2":-89.0444,"dy":0.0017,"dx":0.0017,"nx":28,"ny":28,"refTime":"2025-09-11T09:00:00:Z","depth":0,"parameterNumber":3,"parameterNumberName":"V-component_of_WINDS"},"data":[0,0,0,0,0,0,0,0,0,0,0,0,0,0,0,0,0,0,0,0,0,0,0,0,0,0,0,0,0,0,0,0,0,0,0,0,0,0,0,0,0,0,0,0,0,0,0,0,0,0,0,0,0,0,0,0,0,0,-3.9299,-3.93,0,-3.9383,-3.9384,-3.9385,-3.9347,-3.9345,-3.9343,-3.9341,-3.9423,-3.9426,-3.9431,0,0,0,0,0,0,0,0,0,0,0,0,0,-3.9101,-3.9105,-3.9299,-3.93,-3.9301,-3.9383,-3.9384,-3.9385,-3.9348,-3.9345,-3.9343,-3.934,-3.9421,-3.9426,-3.9431,0,0,0,0,0,0,0,0,0,0,0,0,0,-3.9186,-3.9106,-3.9299,-3.9292,-3.9293,-3.9383,-3.9384,-3.9385,-3.9348,-3.9345,-3.9342,-3.9339,-3.942,-3.9426,-3.9432,-3.9531,0,0,-3.945,-3.9453,0,0,0,0,0,0,0,0,-3.9181,-3.9193,-3.9292,-3.9293,-3.9293,-3.9352,-3.9344,-3.9434,-3.9349,-3.9327,-3.9341,-3.9338,-3.9401,-3.9409,-3.9431,-3.9535,-3.9539,-3.9451,-3.9455,-3.9457,-3.9459,0,0,0,0,0,0,0,-3.9176,-3.919,-3.9332,-3.9294,-3.9294,-3.9284,-3.9292,-3.9361,-3.938,-3.9329,-3.9326,-3.9337,-3.9401,-3.9425,-3.9433,-3.954,-3.9451,-3.9456,-3.946,-3.9462,-3.9729,-3.9733,0,0,0,0,0,0,-3.917,-3.9185,-3.9329,-3.9335,-3.9229,-3.929,-3.9299,-3.9336,-3.9379,-3.9383,-3.9339,-3.9335,-3.9416,-3.9425,-3.9435,-3.9555,-3.9457,-3.9463,-3.9466,-3.9726,-3.973,-3.9734,0,0,0,0,0,0,-3.9166,-3.9184,-3.9326,-3.9259,-3.9277,-3.9297,-3.9338,-3.9339,-3.9364,-3.9388,-3.939,-3.9361,-3.9414,-3.9427,-3.9508,-3.9557,-3.9466,-3.9471,-3.9722,-3.9727,-3.9732,-3.9795,0,0,0,0,0,0,-3.9161,-3.9182,-3.9222,-3.926,-3.928,-3.9399,-3.9341,-3.9343,-3.9375,-3.937,-3.9409,-3.9412,-3.9413,-3.9499,-3.9514,-3.9564,-3.9476,-3.9718,-3.9724,-3.973,-3.9788,-3.9801,-3.9812,0,0,0,0,0,-3.9154,-3.9235,-3.9224,-3.9242,-3.933,-3.9402,-3.9413,-3.9413,-3.9379,-3.9418,-3.9433,-3.9411,-3.9549,-3.9508,-3.9524,-3.9577,-3.9715,-3.9722,-3.973,-3.9783,-3.9799,-3.9812,0,0,0,0,0,0,-3.92,-3.924,-3.9228,-3.9325,-3.936,-3.9395,-3.9444,-3.943,-3.9475,-3.9468,-3.9465,-3.9474,-3.9558,-3.9575,-3.9528,-3.9675,-3.9626,-3.9638,-3.9661,-3.9676,-3.9688,-3.9682,-3.9481,0,0,0,0,0,-3.9222,-3.9278,-3.9309,-3.9391,-3.941,-3.9424,-3.9456,-3.9453,-3.9489,-3.9504,-3.9525,-3.9559,-3.9611,-3.9644,-3.9693,-3.9791,-3.9798,-3.9835,-3.9847,-3.9856,-3.9866,-3.9918,-3.9935,-3.9759,-3.9759,-3.9759,0,0,-3.9266,-3.9295,-3.9331,-3.9401,-3.9429,-3.9486,-3.9437,-3.95,-3.9542,-3.9512,-3.9591,-3.9608,-3.9646,-3.9736,-3.9777,-3.9753,-3.9916,-3.9866,-3.9874,-3.9878,-3.9928,-3.9945,-3.9959,-3.9764,-3.9763,-3.9763,0,0,-3.9377,-3.9405,-3.9476,-3.9505,-3.9548,-3.9557,-3.9574,-3.9612,-3.9622,-3.9701,-3.9681,-3.9729,-3.9818,-3.9846,-3.9872,-3.9994,-3.9974,-4.0009,-4.0072,-4.0123,-4.0137,-4.0149,-4.0192,-4.0207,-4.0019,-4.0019,-4.0019,0,-3.9426,-3.9513,-3.9514,-3.9579,-3.961,-3.9588,-3.9659,-3.9687,-3.9742,-3.9764,-3.9737,-3.9847,-3.9871,-3.9968,-3.9997,-4.0019,-4.0038,-4.0005,-4.0135,-4.0147,-4.0159,-4.02,-4.0216,-4.0023,-4.0023,-4.0022,-4.0022,0,-3.9572,-3.9633,-3.9685,-3.9741,-3.9778,-3.9846,-3.9855,-3.9892,-3.9886,-3.9898,-3.9978,-4.0006,-4.006,-4.0083,-4.0077,-4.0178,-4.0162,-4.0135,-4.0086,-4.018,-4.0218,-4.0233,-4.0029,-4.0027,-4.0026,-4.0025,0,0,-3.9714,-3.977,-3.9789,-3.9814,-3.986,-3.9906,-3.9972,-4.0026,-4.0058,-4.0097,-4.0151,-4.0227,-4.0202,-4.0232,-4.0229,-4.0274,-4.0368,-4.0242,-4.0242,-4.0264,-4.048,-4.0499,-4.0518,-4.0356,-4.0359,-4.0361,-4.0476,0,-3.9827,-3.9945,-3.9948,-4.0055,-4.011,-4.009,-4.0147,-4.0181,-4.0193,-4.024,-4.0253,-4.0307,-4.0271,-4.0289,-4.0332,-4.0347,-4.0411,-4.0339,-4.0405,-4.0407,-4.0396,-4.0538,-4.0559,-4.0666,-4.0491,-4.0494,-4.0496,0,-3.9976,-4.0021,-4.0135,-4.0172,-4.0195,-4.0247,-4.0297,-4.0343,-4.038,-4.0386,-4.0419,-4.041,-4.0475,-4.0425,-4.0515,-4.0466,-4.0492,-4.0504,-4.0508,-4.0514,-4.0457,-4.0547,-4.0701,-4.0717,-4.0519,-4.0518,-4.0516,0,-4.0067,-4.0156,-4.0236,-4.0258,-4.0304,-4.0341,-4.0361,-4.0395,-4.0428,-4.0471,-4.0491,-4.0541,-4.0568,-4.0606,-4.0609,-4.0572,-4.0699,-4.0649,-4.0705,-4.0705,-4.0732,-4.073,-4.0892,-4.075,-4.075,-4.075,-4.0749,0,-4.0193,-4.0263,-4.0278,-4.0326,-4.0404,-4.0405,-4.0481,-4.0498,-4.0529,-4.0579,-4.0564,-4.0612,-4.0614,-4.0662,-4.0665,-4.0738,-4.0751,-4.0756,-4.0756,-4.0757,-4.0757,-4.0775,-4.0767,-4.0754,-4.0753,-4.0752,-4.0752,0,-4.0308,-4.0321,-4.0406,-4.0443,-4.0454,-4.0509,-4.054,-4.0586,-4.0597,-4.0661,-4.0676,-4.0693,-4.0749,-4.0756,-4.0821,-4.0823,-4.0912,-4.0904,-4.09,-4.0898,-4.0953,-4.0948,-4.1132,-4.1156,-4.0999,-4.1001,-4.1002,0,-4.0388,-4.0442,-4.0485,-4.0519,-4.0542,-4.0596,-4.0629,-4.0632,-4.0667,-4.0714,-4.0754,-4.0808,-4.0852,-4.0942,-4.0959,-4.1009,-4.1002,-4.1063,-4.1009,-4.1008,-4.1002,-4.0999,-4.1004,-4.1073,-4.1075,-4.1076,-4.1077,0,-4.0528,-4.0532,-4.0581,-4.0634,-4.0674,-4.0715,-4.0753,-4.0781,-4.0789,-4.0829,-4.0887,-4.0921,-4.0988,-4.1042,-4.1091,-4.111,-4.1095,-4.1094,-4.111,-4.1111,-4.1107,-4.1109,-4.0928,-4.109,-4.1088,-4.1088,-4.1087,-4.1086,-4.0627,-4.0674,-4.0712,-4.0768,-4.0797,-4.0833,-4.0878,-4.0896,-4.0945,-4.1,-4.0999,-4.1062,-4.1097,-4.1162,-4.1184,-4.1233,-4.1213,-4.1235,-4.1241,-4.1246,-4.1251,-4.11,-4.1242,-4.1241,-4.1241,-4.1241,-4.124,0,-4.0766,-4.079,-4.0841,-4.0896,-4.0939,-4.0923,-4.0964,-4.1001,-4.1058,-4.1093,-4.1137,-4.1203,-4.1255,-4.1277,-4.1328,-4.1363,-4.1357,-4.1376,-4.1373,-4.1378,-4.1267,-4.1248,-4.138,-4.138,-4.138,-4.138,-4.138,-4.138,-4.0843,-4.0921,-4.093,-4.1022,-4.1044,-4.1108,-4.1133,-4.1165,-4.1193,-4.1268,-4.1313,-4.1327,-4.1356,-4.1409,-4.1456,-4.1461,-4.148,-4.1502,-4.1504,-4.14,-4.1386,-4.1372,-4.1355,-4.1507,-4.1507,-4.1611,-4.1612,-4.1612]}]]